Fremont, MI

4:59 AM EDT on April 29, 2017 (GMT -0400)
Fremont

Weather History for KFFX - June, 2013

Change the Weather History Date:

Sunday, June 30, 2013

  Actual Average (KMKG) Record (KMKG)
Temperature  
Mean Temperature 70 °F -  
Max Temperature 81 °F 78 °F 92 °F (1964)
Min Temperature 59 °F 59 °F 42 °F (1900)
Cooling Degree Days 5    
Growing Degree Days 20 (Base 50)    
Moisture  
Dew Point 51 °F    
Average Humidity 57    
Maximum Humidity 91    
Minimum Humidity 26    
Precipitation  
Precipitation 0.00 in - - ()
Sea Level Pressure  
Sea Level Pressure 29.89 in    
Wind  
Wind Speed 5 mph (North)    
Max Wind Speed 13 mph    
Max Gust Speed 22 mph    
Visibility 10 miles    
Events      
Averages and records for this station are not official NWS values.
T = Trace of Precipitation, MM = Missing Value Source: NWS Daily Summary

Daily Weather History Graph

Daily Weather History Graph

Search for Another Location

Airport or City:

Trip Planner

Search our weather history database for the weather conditions in past years. The results will help you decide how hot, cold, wet, or windy it might be!

Date:

Astronomy

Jun. 30, 2013 Rise Set
Actual Time 6:06 AM EDT 9:28 PM EDT
Civil Twilight 5:31 AM EDT 10:04 PM EDT
Nautical Twilight 4:44 AM EDT 10:50 PM EDT
Astronomical Twilight 3:46 AM EDT 11:48 PM EDT
Moon 1:13 AM EDT (6/30) 2:35 PM EDT (6/30)
Length of Visible Light 16h 33m
Length of Day
15h 21m
Last Quarter, 45% of the Moon is Illuminated
Jun 30
Last Quarter
Jul 8
New
Jul 15
First Quarter
Jul 22
Full
Jul 29
Last Quarter

Hourly Weather History & Observations

Time (EDT) Temp. Dew Point Humidity Pressure Visibility Wind Dir Wind Speed Gust Speed Precip Events Conditions
12:14 AM 64.8 °F 59.0 °F 82% 29.79 in 10.0 mi North 4.6 mph - N/A   Overcast
12:35 AM 64.9 °F 59.2 °F 82% 29.79 in 10.0 mi NNE 4.6 mph - N/A   Overcast
12:54 AM 65.1 °F 59.2 °F 81% 29.80 in 10.0 mi NNE 3.5 mph - N/A   Overcast
1:14 AM 65.1 °F 59.4 °F 82% 29.80 in 10.0 mi Calm Calm - N/A   Overcast
1:35 AM 64.4 °F 59.4 °F 84% 29.80 in 10.0 mi North 3.5 mph - N/A   Overcast
1:55 AM 63.9 °F 59.5 °F 86% 29.81 in 10.0 mi NNW 3.5 mph - N/A   Overcast
2:14 AM 63.5 °F 59.4 °F 86% 29.81 in 10.0 mi North 5.8 mph - N/A   Overcast
2:34 AM 63.1 °F 58.8 °F 86% 29.81 in 10.0 mi NNW 6.9 mph - N/A   Mostly Cloudy
2:55 AM 62.6 °F 58.5 °F 86% 29.81 in 10.0 mi NNW 5.8 mph - N/A   Mostly Cloudy
3:14 AM 62.6 °F 59.0 °F 88% 29.81 in 10.0 mi NNW 5.8 mph - N/A   Overcast
3:34 AM 62.6 °F 59.2 °F 89% 29.81 in 10.0 mi NNW 4.6 mph - N/A   Overcast
3:55 AM 63.0 °F 58.6 °F 86% 29.81 in 10.0 mi NNW 5.8 mph - N/A   Overcast
4:14 AM 62.8 °F 58.1 °F 85% 29.81 in 10.0 mi North 3.5 mph - N/A   Overcast
4:35 AM 62.6 °F 57.2 °F 82% 29.81 in 10.0 mi Calm Calm - N/A   Overcast
4:54 AM 62.6 °F 57.2 °F 82% 29.82 in 10.0 mi Calm Calm - N/A   Overcast
5:15 AM 61.7 °F 57.2 °F 85% 29.83 in 10.0 mi NNE 4.6 mph - N/A   Overcast
5:35 AM 61.2 °F 57.2 °F 87% 29.83 in 10.0 mi NNE 3.5 mph - N/A   Overcast
5:54 AM 60.8 °F 57.2 °F 88% 29.83 in 10.0 mi Calm Calm - N/A   Overcast
6:14 AM 60.4 °F 57.2 °F 89% 29.84 in 10.0 mi North 3.5 mph - N/A   Overcast
6:35 AM 59.9 °F 57.2 °F 91% 29.85 in 10.0 mi North 3.5 mph - N/A   Scattered Clouds
6:55 AM 59.9 °F 57.4 °F 91% 29.85 in 10.0 mi NNW 3.5 mph - N/A   Scattered Clouds
7:14 AM 60.1 °F 57.6 °F 91% 29.85 in 10.0 mi NNW 3.5 mph - N/A   Scattered Clouds
7:35 AM 60.6 °F 57.2 °F 88% 29.85 in 10.0 mi North 4.6 mph - N/A   Scattered Clouds
7:55 AM 61.3 °F 57.0 °F 86% 29.86 in 10.0 mi North 4.6 mph - N/A   Mostly Cloudy
8:14 AM 62.4 °F 56.8 °F 82% 29.87 in 10.0 mi North 4.6 mph - N/A   Overcast
8:35 AM 63.9 °F 56.3 °F 76% 29.87 in 10.0 mi NNE 4.6 mph - N/A   Overcast
8:54 AM 65.1 °F 56.3 °F 73% 29.87 in 10.0 mi NNE 5.8 mph - N/A   Overcast
9:15 AM 66.6 °F 55.0 °F 66% 29.88 in 10.0 mi NNE 6.9 mph - N/A   Overcast
9:35 AM 67.8 °F 54.5 °F 62% 29.89 in 10.0 mi NNE 5.8 mph - N/A   Overcast
9:54 AM 69.3 °F 54.9 °F 60% 29.89 in 10.0 mi NNE 9.2 mph - N/A   Overcast
10:15 AM 69.1 °F 55.2 °F 61% 29.90 in 10.0 mi North 6.9 mph - N/A   Overcast
10:34 AM 69.4 °F 55.6 °F 61% 29.90 in 10.0 mi North 5.8 mph - N/A   Mostly Cloudy
10:55 AM 70.7 °F 55.4 °F 58% 29.90 in 10.0 mi North 5.8 mph - N/A   Mostly Cloudy
11:14 AM 72.5 °F 55.2 °F 54% 29.90 in 10.0 mi North 5.8 mph - N/A   Mostly Cloudy
11:35 AM 73.8 °F 54.5 °F 51% 29.91 in 10.0 mi NNE 8.1 mph - N/A   Scattered Clouds
11:54 AM 74.8 °F 55.0 °F 50% 29.91 in 10.0 mi North 6.9 mph - N/A   Scattered Clouds
12:14 PM 75.7 °F 55.9 °F 50% 29.91 in 10.0 mi NNW 6.9 mph - N/A   Mostly Cloudy
12:35 PM 75.7 °F 54.9 °F 48% 29.91 in 10.0 mi NW 8.1 mph - N/A   Scattered Clouds
12:54 PM 76.6 °F 54.7 °F 46% 29.92 in 10.0 mi NNW 11.5 mph - N/A   Clear
1:15 PM 77.4 °F 50.9 °F 39% 29.91 in 10.0 mi North 12.7 mph 17.3 mph N/A   Clear
1:34 PM 78.4 °F 50.4 °F 37% 29.91 in 10.0 mi North 10.4 mph 18.4 mph N/A   Clear
1:55 PM 79.3 °F 49.1 °F 35% 29.91 in 10.0 mi North 10.4 mph 21.9 mph N/A   Clear
2:15 PM 80.1 °F 49.6 °F 34% 29.91 in 10.0 mi NE 5.8 mph 16.1 mph N/A   Scattered Clouds
2:34 PM 81.0 °F 47.7 °F 31% 29.91 in 10.0 mi North 10.4 mph - N/A   Mostly Cloudy
2:55 PM 80.4 °F 46.0 °F 30% 29.91 in 10.0 mi NNE 6.9 mph 16.1 mph N/A   Scattered Clouds
3:14 PM 77.9 °F 44.4 °F 30% 29.91 in 10.0 mi North 10.4 mph 17.3 mph N/A   Scattered Clouds
3:35 PM 81.1 °F 44.1 °F 27% 29.91 in 10.0 mi NNE 8.1 mph - N/A   Scattered Clouds
3:55 PM 81.1 °F 44.1 °F 27% 29.91 in 10.0 mi NNE 9.2 mph - N/A   Clear
4:14 PM 81.5 °F 43.9 °F 26% 29.91 in 10.0 mi NNE 11.5 mph 16.1 mph N/A   Clear
4:35 PM 81.1 °F 44.4 °F 27% 29.91 in 10.0 mi NE 9.2 mph - N/A   Clear
4:54 PM 81.3 °F 44.2 °F 27% 29.91 in 10.0 mi North 8.1 mph - N/A   Clear
5:14 PM 80.1 °F 44.2 °F 28% 29.92 in 10.0 mi NE 11.5 mph 16.1 mph N/A   Scattered Clouds
5:35 PM 81.3 °F 45.3 °F 28% 29.92 in 10.0 mi ENE 10.4 mph - N/A   Mostly Cloudy
5:54 PM 80.4 °F 45.1 °F 29% 29.92 in 10.0 mi NE 9.2 mph - N/A   Scattered Clouds
6:15 PM 80.1 °F 44.2 °F 28% 29.92 in 10.0 mi NE 10.4 mph - N/A   Clear
6:34 PM 78.8 °F 44.4 °F 30% 29.92 in 10.0 mi NE 11.5 mph - N/A   Clear
6:55 PM 78.4 °F 45.3 °F 31% 29.93 in 10.0 mi North 8.1 mph - N/A   Clear
7:14 PM 78.3 °F 45.3 °F 31% 29.93 in 10.0 mi NNE 9.2 mph - N/A   Scattered Clouds
7:34 PM 77.4 °F 46.6 °F 34% 29.94 in 10.0 mi North 6.9 mph - N/A   Scattered Clouds
7:55 PM 76.6 °F 46.2 °F 34% 29.95 in 10.0 mi NNW 8.1 mph - N/A   Clear
8:14 PM 75.2 °F 45.9 °F 35% 29.95 in 10.0 mi North 6.9 mph - N/A   Clear
8:35 PM 73.8 °F 45.9 °F 37% 29.96 in 10.0 mi North 4.6 mph - N/A   Clear
8:55 PM 72.7 °F 44.2 °F 36% 29.96 in 10.0 mi North 5.8 mph - N/A   Clear
9:14 PM 71.4 °F 44.1 °F 37% 29.96 in 10.0 mi North 4.6 mph - N/A   Clear
9:35 PM 69.3 °F 44.6 °F 41% 29.97 in 10.0 mi North 5.8 mph - N/A   Clear
9:55 PM 69.1 °F 41.7 °F 37% 29.97 in 7.0 mi North 6.9 mph - N/A   Clear
10:15 PM 68.9 °F 40.1 °F 35% 29.98 in 10.0 mi North 6.9 mph - N/A   Clear
10:35 PM 67.8 °F 40.5 °F 37% 29.99 in 10.0 mi North 6.9 mph - N/A   Clear
10:54 PM 67.1 °F 40.5 °F 38% 30.00 in 10.0 mi North 5.8 mph - N/A   Clear
11:15 PM 65.5 °F 41.2 °F 41% 30.00 in 10.0 mi NNE 4.6 mph - N/A   Clear
11:35 PM 64.8 °F 42.3 °F 44% 30.00 in 10.0 mi NNE 3.5 mph - N/A   Clear
11:54 PM 64.0 °F 43.9 °F 48% 30.01 in 10.0 mi NNE 3.5 mph - N/A   Clear